V.C. Bird, Antigua

3:11 PM AST on December 09, 2019 (GMT -0400)
V C Bird International

Weather History for TAPA - November, 2019

Change the Weather History Date:

Saturday, November 16, 2019

  Actual Average Record
Temperature  
Mean Temperature 82 °F -  
Max Temperature 88 °F 82 °F 88 °F (2017)
Min Temperature 77 °F 73 °F 73 °F (2006)
Cooling Degree Days 18    
Growing Degree Days 32 (Base 50)    
Moisture  
Dew Point 75 °F    
Average Humidity 77    
Maximum Humidity 84    
Minimum Humidity 59    
Precipitation  
Precipitation 0.02 in - - ()
Sea Level Pressure  
Sea Level Pressure 29.80 in    
Wind  
Wind Speed 7 mph ()    
Max Wind Speed 12 mph    
Max Gust Speed -    
Visibility 8.5 miles    
Events Rain    
Averages and records for this station are not official NWS values.
T = Trace of Precipitation, MM = Missing Value Source: Averaged Metar Reports

Daily Weather History Graph

Daily Weather History Graph

Search for Another Location

Airport or City:

Astronomy

Nov. 16, 2019 Rise Set
Actual Time 6:12 AM AST 5:31 PM AST
Civil Twilight 5:49 AM AST 5:54 PM AST
Nautical Twilight 5:22 AM AST 6:20 PM AST
Astronomical Twilight 4:56 AM AST 6:46 PM AST
Moon 9:13 PM AST (11/16) 9:46 AM AST (11/16)
Length of Visible Light 12h 05m
Length of Day
11h 19m
Waning Gibbous, 83% of the Moon is Illuminated
Nov 16
Waning Gibbous
Nov 19
Last Quarter
Nov 26
New
Dec 4
First Quarter
Dec 12
Full

Hourly Weather History & Observations

Time (AST) Temp. Heat Index Dew Point Humidity Pressure Visibility Wind Dir Wind Speed Gust Speed Precip Events Conditions
12:00 AM 80.6 °F 84.6 °F 71.6 °F 74% 29.83 in 6.2 mi ENE 5.8 mph - N/A   Scattered Clouds
1:00 AM 80.6 °F 84.6 °F 71.6 °F 74% 29.83 in 6.2 mi East 8.1 mph - N/A   Scattered Clouds
2:00 AM 78 °F - 73 °F 80% 29.82 in 19 mi East 5.8 mph - -   Partly Cloudy
2:00 AM 78.8 °F - 73.4 °F 83% 29.80 in 6.2 mi East 5.8 mph - N/A   Mostly Cloudy
4:00 AM 78.8 °F - 73.4 °F 83% 29.77 in 6.2 mi ENE 6.9 mph - N/A   Scattered Clouds
6:00 AM 78.8 °F - 73.4 °F 83% 29.80 in 6.2 mi ENE 5.8 mph - N/A   Mostly Cloudy
7:00 AM 80.6 °F 86.2 °F 75.2 °F 84% 29.80 in 6.2 mi ENE 5.8 mph - N/A   Mostly Cloudy
8:00 AM 82 °F - 75 °F 75% 29.84 in 17 mi ENE 8.1 mph - -   Partly Cloudy
8:00 AM 82.4 °F 89.5 °F 75.2 °F 79% 29.83 in 6.2 mi ENE 8.1 mph - N/A   Scattered Clouds
9:00 AM 86.0 °F 95.1 °F 75.2 °F 70% 29.86 in 6.2 mi East 8.1 mph - N/A   Mostly Cloudy
10:00 AM 86.0 °F 96.9 °F 77.0 °F 74% 29.86 in 6.2 mi East 10.4 mph - N/A   Scattered Clouds
11:00 AM 87 °F - 74 °F 59% 29.85 in 17 mi East 10.4 mph - -   Partly Cloudy
11:00 AM 86.0 °F 95.1 °F 75.2 °F 70% 29.83 in 6.2 mi East 10.4 mph - N/A   Scattered Clouds
12:00 PM 86.0 °F 96.9 °F 77.0 °F 74% 29.83 in 6.2 mi East 10.4 mph - N/A   Scattered Clouds
1:00 PM 86.0 °F 96.9 °F 77.0 °F 74% 29.80 in 6.2 mi ENE 10.4 mph - N/A   Scattered Clouds
2:00 PM 85 °F - 78 °F 73% 29.78 in 12 mi ENE 11.5 mph - - Rain Light Rain Showers
2:00 PM 86.0 °F 96.9 °F 77.0 °F 74% 29.77 in 6.2 mi ENE 11.5 mph - N/A Rain Light Rain Showers
3:00 PM 84.2 °F 94.1 °F 77.0 °F 79% 29.77 in 6.2 mi ENE 8.1 mph - N/A   Scattered Clouds
4:00 PM 84.2 °F 92.3 °F 75.2 °F 74% 29.77 in 6.2 mi East 8.1 mph - N/A   Mostly Cloudy
5:00 PM 82 °F - 75 °F 74% 29.78 in 19 mi East 8.1 mph - -   Mostly Cloudy
5:00 PM 82.4 °F 89.5 °F 75.2 °F 79% 29.77 in 6.2 mi East 8.1 mph - N/A   Scattered Clouds
6:00 PM 80.6 °F 85.4 °F 73.4 °F 79% 29.77 in 6.2 mi East 4.6 mph - N/A   Scattered Clouds
7:00 PM 80.6 °F 85.4 °F 73.4 °F 79% 29.77 in 6.2 mi ENE 4.6 mph - N/A   Scattered Clouds
8:00 PM 80 °F - 74 °F 78% 29.80 in 14 mi East 4.6 mph - -   Scattered Clouds
8:00 PM 80.6 °F 86.2 °F 75.2 °F 84% 29.80 in 6.2 mi East 4.6 mph - N/A   Partly Cloudy
9:00 PM 80.6 °F 85.4 °F 73.4 °F 79% 29.80 in 6.2 mi Variable 2.3 mph - N/A   Scattered Clouds
10:00 PM 80.6 °F 86.2 °F 75.2 °F 84% 29.80 in 6.2 mi ENE 6.9 mph - N/A Rain Light Rain Showers